GEFSSGP_con_prob3kmehi_120.txt.gz
EHI
6 10 15 12 8 6 3 1 0 0 0 0 1 4 10 13 11 8 18 46 68 63 49 41 32 20 11 6 3 1 0 0 0 0 0 0 0 0 0 0 0 0 0 0 0 0 0 0 0
6 10 12 9 6 4 2 0 0 0 0 0 3 8 13 15 13 12 23 48 63 54 42 40 34 21 10 6 4 2 0 0 0 0 0 0 0 0 0 0 0 0 0 0 0 0 0 0 0
5 7 7 5 4 2 0 0 0 0 0 1 7 15 17 15 18 21 29 45 54 48 43 44 38 24 11 6 6 5 2 1 1 1 1 1 0 0 0 0 0 0 0 0 0 0 0 0 0
4 4 3 3 3 1 0 0 0 0 0 4 17 28 25 19 21 25 28 37 47 51 51 49 42 29 15 8 7 7 6 4 4 4 4 3 1 0 0 0 0 0 0 0 0 0 0 0 0
2 2 2 1 1 0 0 0 0 0 0 8 28 41 33 24 22 20 22 30 47 58 55 49 44 34 22 14 12 11 10 9 9 9 7 5 2 0 0 0 0 0 0 0 0 0 0 0 0
1 1 1 0 0 0 0 0 1 2 3 11 30 42 36 26 21 17 18 31 51 62 55 45 39 32 24 20 16 14 12 9 9 10 8 5 2 0 0 0 0 0 0 0 0 0 0 0 0
1 1 0 0 0 0 0 1 3 6 10 18 32 42 39 31 24 19 20 33 52 59 51 37 28 24 20 17 16 13 10 7 6 6 5 2 1 0 0 0 0 0 0 0 0 0 0 0 0
0 0 0 0 0 0 0 2 7 15 21 30 43 50 45 34 25 21 24 38 53 54 43 30 23 19 14 11 12 10 7 5 4 3 1 0 0 0 0 0 0 1 1 0 0 0 0 0 0
0 0 0 0 0 0 0 3 11 22 31 41 53 58 49 36 27 26 32 45 55 53 40 30 26 21 15 14 13 9 5 4 4 4 3 2 1 1 1 2 3 3 2 1 0 0 0 0 0
0 0 0 0 0 0 1 6 14 26 37 46 56 59 51 41 36 35 41 51 56 53 45 39 35 30 28 30 26 15 10 12 12 12 11 8 7 6 6 9 10 7 3 2 1 1 1 1 1
0 0 0 0 0 0 3 9 20 33 42 47 54 56 51 48 47 46 51 57 55 52 51 51 49 47 48 50 42 29 26 29 27 24 23 22 21 19 17 19 17 11 7 5 5 3 3 3 2
0 0 0 0 0 1 6 15 28 40 45 45 49 53 53 55 57 56 58 58 56 53 54 58 60 61 62 61 53 44 42 44 42 37 32 33 34 31 28 25 21 17 14 12 11 8 6 4 3
0 0 0 0 1 4 12 20 29 37 40 41 45 52 57 62 64 61 59 57 54 53 54 57 59 60 60 59 54 48 48 48 44 38 33 34 36 34 32 28 22 19 17 16 16 14 11 9 7
0 0 0 0 2 7 15 21 23 25 29 35 41 49 56 61 61 59 57 56 54 52 53 52 50 48 48 47 44 41 40 38 32 28 27 29 30 31 30 26 22 18 16 17 19 19 17 14 12
0 0 0 0 2 7 13 20 19 18 21 27 33 40 47 50 50 50 50 50 50 51 49 44 39 36 36 34 30 28 27 25 21 20 22 23 24 25 24 22 22 19 16 17 20 21 20 16 12
0 0 0 0 1 3 10 19 20 17 19 23 26 31 34 35 35 36 36 38 42 46 44 36 29 27 27 24 20 17 16 16 16 16 17 17 15 15 16 18 19 18 15 13 15 19 20 16 11
0 0 0 0 0 2 9 16 17 16 17 20 22 23 23 21 21 22 24 26 30 36 37 30 24 21 19 16 13 10 9 9 9 10 11 11 8 8 9 12 13 13 11 10 11 15 16 14 11
0 0 0 0 1 4 9 12 13 13 14 16 19 19 16 14 13 12 14 17 21 25 27 24 21 19 15 12 10 7 5 5 5 5 8 8 6 5 5 5 6 7 7 8 10 11 10 8 7
0 0 0 0 1 4 8 12 11 11 13 17 19 17 13 12 11 9 8 11 15 18 19 17 15 14 12 9 7 5 4 3 3 4 6 6 5 4 3 3 3 4 4 5 6 6 5 5 5
0 0 0 0 1 3 6 9 9 10 12 16 18 15 12 13 13 11 9 11 13 15 16 14 13 11 8 6 5 4 3 2 3 4 4 3 2 2 3 3 3 3 3 2 1 2 2 3 3
0 0 0 0 0 1 2 4 7 9 10 12 14 12 12 15 16 14 13 13 13 14 15 16 16 13 8 5 4 3 2 2 2 3 2 2 1 1 1 2 2 2 2 1 0 0 1 1 1
0 0 0 0 0 0 0 2 8 11 9 7 8 9 13 17 18 16 16 16 15 14 14 17 17 12 8 6 4 2 1 1 1 1 1 2 1 0 0 1 1 1 1 1 0 0 0 0 0
0 0 0 0 0 0 0 2 7 11 9 7 7 9 13 17 18 17 19 21 17 12 12 14 14 10 6 4 2 0 0 0 0 0 1 1 1 0 0 0 0 0 0 0 0 0 0 0 0
0 0 0 0 0 0 0 1 5 8 8 9 11 11 13 15 15 16 18 20 15 10 8 10 12 9 4 2 0 0 0 0 0 0 0 0 0 0 0 0 0 0 0 0 0 0 0 0 0
0 0 0 0 0 0 0 1 4 5 5 9 13 13 12 11 10 10 12 11 9 7 6 7 8 7 3 1 0 1 1 0 0 0 0 0 0 0 0 0 0 0 0 0 0 0 0 0 0
0 0 0 0 0 0 0 2 3 2 2 5 10 11 9 7 5 4 5 5 3 3 3 5 6 5 3 2 1 1 0 0 0 0 0 0 0 0 0 0 0 0 0 0 0 0 0 0 0
0 0 0 0 0 0 1 2 2 0 0 1 3 5 5 4 2 1 2 2 2 2 2 4 5 4 3 3 2 1 0 0 0 0 0 0 0 0 0 0 0 0 0 0 0 0 0 0 0
0 0 0 0 0 0 0 1 0 0 0 0 1 2 2 2 1 0 1 1 1 2 2 4 5 4 3 2 1 0 0 0 0 0 0 0 0 0 0 0 0 0 0 0 0 0 0 0 0
0 0 0 0 0 0 0 0 0 0 0 0 0 1 1 1 0 0 0 0 0 1 2 3 3 2 1 1 0 0 0 0 0 0 0 0 0 0 0 0 0 0 0 0 0 0 0 0 0
0 0 0 0 0 0 0 0 0 0 0 0 0 1 0 0 0 0 0 0 0 1 2 3 2 1 0 0 0 0 0 0 0 0 0 0 0 0 0 0 0 0 0 0 0 0 0 0 0

GEFSSGP_con_prob3kmehi_126.txt.gz
EHI
13 6 1 0 1 2 2 1 1 3 5 7 11 16 20 14 7 4 8 24 46 51 40 38 45 43 33 24 17 10 5 4 4 3 1 0 0 0 0 0 0 0 0 0 0 0 0 0 0
6 3 0 0 1 2 1 1 2 5 7 11 15 21 21 14 8 8 13 30 49 50 39 39 47 45 33 22 13 8 5 4 3 3 2 1 0 0 0 0 0 0 0 0 0 0 0 0 0
1 0 0 0 0 1 1 1 4 7 11 14 20 24 20 12 10 12 21 38 52 49 40 43 51 47 34 22 12 6 4 3 3 3 2 1 0 0 0 0 0 0 0 0 0 0 0 0 0
0 0 0 0 1 1 2 3 6 10 15 18 22 24 20 17 19 24 33 45 54 52 43 45 50 47 36 24 14 9 6 4 3 2 1 0 0 0 0 0 0 0 0 0 0 0 0 0 0
0 0 0 0 1 2 2 4 7 13 18 21 23 25 23 25 34 40 39 43 52 53 45 41 45 44 34 23 15 12 8 4 2 1 0 0 0 0 0 0 0 0 0 0 0 0 0 0 0
0 0 0 0 1 1 2 5 9 15 20 20 21 23 22 26 38 43 39 38 45 49 44 36 36 36 30 23 18 15 10 5 2 1 1 1 0 0 0 0 0 0 0 0 0 0 0 0 0
0 0 0 0 0 1 3 6 10 16 20 19 17 17 17 23 34 41 38 37 38 40 39 33 28 27 27 25 23 19 14 9 5 4 3 2 1 0 0 0 0 0 0 0 0 0 0 0 0
0 0 0 0 0 1 5 8 11 17 21 22 19 16 18 26 37 45 43 38 35 31 28 26 23 21 21 22 23 22 19 14 9 6 4 2 1 0 0 0 0 0 0 0 0 0 0 0 0
0 0 0 0 1 3 6 7 9 15 20 22 22 23 26 33 44 50 46 38 31 23 17 16 16 15 14 15 15 17 17 14 10 7 5 2 1 1 1 1 1 0 0 0 0 0 0 0 0
0 0 0 0 2 5 7 7 9 13 16 17 22 28 33 39 45 45 41 34 25 15 10 10 12 10 10 10 9 8 9 9 8 7 5 3 2 2 2 2 2 2 2 1 0 0 0 1 1
0 0 0 1 4 7 8 9 12 15 13 14 22 30 35 39 38 35 32 29 21 12 9 11 11 10 9 9 8 6 6 6 6 5 4 2 1 1 1 2 3 4 3 1 0 1 2 2 2
0 0 1 3 6 9 10 10 14 17 17 20 28 33 34 35 32 28 28 29 23 16 13 13 12 11 10 10 9 7 7 6 5 5 5 3 1 0 0 1 3 4 2 1 1 2 3 3 2
0 0 1 3 6 8 10 11 12 17 22 29 34 35 32 31 29 27 28 27 23 20 17 15 13 11 9 8 6 5 4 4 4 4 4 3 1 0 0 1 2 2 1 0 1 2 2 1 1
0 0 0 2 4 6 8 9 9 14 22 29 31 29 28 28 27 26 26 23 20 19 17 15 14 10 5 4 3 2 2 2 2 2 2 1 0 0 0 0 1 1 0 0 0 0 0 0 0
0 0 0 1 3 4 6 7 8 12 20 24 23 22 23 23 21 19 17 16 16 14 13 12 11 7 4 3 2 2 1 1 1 0 0 1 1 1 0 0 0 0 0 0 0 0 0 0 0
0 0 0 1 2 3 4 6 8 12 18 19 17 18 18 16 12 9 9 10 11 11 10 9 8 7 5 3 2 1 0 0 0 0 0 1 2 1 1 1 1 0 0 0 0 0 0 0 0
0 0 0 0 1 2 2 3 6 11 15 15 14 14 12 8 5 5 7 7 7 7 7 7 7 6 4 2 1 1 0 0 0 0 0 1 1 1 1 2 1 0 0 0 0 0 0 0 0
0 0 0 0 0 1 1 2 3 6 9 11 11 9 6 3 3 5 7 6 5 5 4 4 4 4 2 1 0 0 0 0 0 0 0 0 0 0 1 1 1 0 0 0 0 0 0 0 0
0 0 0 0 0 1 2 2 1 2 5 8 9 6 4 2 2 5 7 6 5 4 3 1 1 1 1 0 0 0 0 0 0 0 0 0 0 0 0 0 0 0 0 0 0 0 0 0 0
0 0 0 0 0 1 2 2 1 1 4 6 7 6 5 3 3 5 7 6 5 3 1 0 0 0 0 0 0 0 0 0 0 0 0 0 0 0 0 0 0 0 0 0 0 0 0 0 0
0 0 0 0 0 1 1 1 1 1 3 5 6 7 6 4 3 5 5 4 2 1 0 0 0 0 0 0 0 0 0 0 0 0 0 0 0 0 0 0 0 0 0 0 0 0 0 0 0
0 0 0 0 0 0 0 1 1 2 1 2 3 4 3 3 3 4 3 2 1 1 0 0 0 0 0 0 0 0 0 0 0 0 0 0 0 0 0 0 0 0 0 0 0 0 0 0 0
0 0 0 0 0 0 0 0 1 1 1 1 2 3 3 4 5 5 4 3 2 2 1 0 0 0 0 0 0 0 0 0 0 0 0 0 0 0 0 0 0 0 0 0 0 0 0 0 0
0 0 0 0 0 0 0 0 0 0 0 1 3 4 5 7 9 8 5 4 3 2 1 0 0 0 0 0 0 0 0 0 0 0 0 0 0 0 0 0 0 0 0 0 0 0 0 0 0
0 0 0 0 0 0 0 0 0 0 0 1 3 6 8 11 11 8 4 3 3 2 1 0 0 0 0 0 0 0 0 0 0 0 0 0 0 0 0 0 0 0 0 0 0 0 0 0 0
0 0 0 0 0 0 0 0 0 0 0 0 2 5 8 10 9 5 3 2 2 1 0 0 0 0 0 0 0 0 0 0 0 0 0 0 0 0 0 0 0 0 0 0 0 0 0 0 0
0 0 0 0 0 0 0 0 0 0 0 1 2 4 5 5 4 3 2 1 1 0 0 0 0 0 0 0 0 0 0 0 0 0 0 0 0 0 0 0 0 0 0 0 0 0 0 0 0
0 0 0 0 0 0 0 0 0 0 1 2 3 2 1 1 1 2 2 1 0 0 0 1 1 0 0 0 0 0 0 0 0 0 0 0 0 0 0 0 0 0 0 0 0 0 0 0 0
0 0 0 0 0 0 0 0 0 0 1 2 2 1 0 0 1 2 2 1 0 0 1 2 1 0 0 0 0 0 0 0 0 0 0 0 0 0 0 0 0 0 0 0 0 0 0 0 0
0 0 0 0 0 0 0 0 0 0 0 1 1 0 0 0 1 2 2 1 0 1 2 2 1 0 0 0 0 0 0 0 0 0 0 0 0 0 0 0 0 0 0 0 0 0 0 0 0

GEFSSGP_con_prob3kmehi_132.txt.gz
EHI
1 1 0 0 0 0 0 0 0 0 0 1 3 7 9 6 3 2 2 12 31 37 29 26 33 45 51 44 33 27 26 24 19 14 11 6 2 1 0 0 0 0 0 0 0 0 0 0 0
1 0 0 0 0 0 0 0 0 0 1 2 4 8 10 7 4 3 4 15 33 39 30 27 35 44 46 40 32 26 23 21 18 14 10 5 2 0 0 0 0 0 0 0 0 0 0 0 0
0 0 0 0 0 0 0 0 0 1 2 4 6 9 9 8 5 3 7 21 36 38 31 31 39 43 41 37 32 26 22 19 15 11 7 3 1 0 0 0 0 0 0 0 0 0 0 0 0
0 0 0 0 0 0 0 0 1 3 4 6 8 10 10 7 6 6 13 27 37 37 32 34 41 43 39 35 31 27 23 17 12 7 3 1 0 0 0 0 0 0 0 0 0 0 0 0 0
0 0 0 0 0 1 1 1 2 5 6 8 11 13 12 10 11 16 22 30 38 39 35 33 38 42 39 33 29 26 21 15 9 5 2 1 0 0 0 0 0 0 0 0 1 0 0 0 0
0 0 0 0 1 1 1 1 2 6 10 12 14 16 14 14 17 21 28 34 39 42 38 32 32 34 32 27 23 21 17 12 8 5 4 3 1 0 0 0 0 0 0 0 0 0 0 0 0
0 0 0 0 0 0 0 0 2 8 13 14 14 14 14 14 17 23 32 37 40 42 38 31 26 24 22 19 17 15 12 8 6 5 4 3 1 0 0 0 0 0 0 0 0 0 0 1 1
0 0 0 0 0 0 0 0 2 8 14 14 13 11 12 16 23 30 36 39 39 36 32 26 22 20 17 13 11 9 8 5 3 3 2 1 1 0 0 0 0 0 0 0 0 0 1 2 3
0 0 0 0 0 0 0 0 2 8 14 16 15 15 19 27 34 37 36 34 32 28 25 23 22 21 18 13 9 7 7 6 3 2 1 1 1 1 0 0 0 0 0 0 0 0 1 3 4
0 0 0 0 1 1 1 1 3 7 14 19 23 27 31 35 37 33 27 23 21 20 19 18 20 21 19 14 9 9 9 8 5 2 1 1 1 1 0 0 0 0 0 0 0 0 2 3 4
0 0 0 1 3 5 5 5 5 7 11 19 29 34 35 34 30 24 17 15 14 14 14 13 16 18 17 13 11 10 9 7 4 2 1 1 1 1 0 0 0 0 0 0 0 2 4 5 5
0 0 0 1 5 8 10 10 9 8 11 20 29 31 29 27 22 16 13 12 11 10 9 9 10 11 11 10 9 8 5 3 2 1 0 0 0 0 0 0 0 0 0 0 0 2 4 4 4
0 0 0 1 4 9 13 15 13 11 15 24 28 25 22 20 15 11 11 10 8 6 5 5 5 5 5 5 4 3 1 0 0 0 0 0 0 0 0 0 0 0 0 0 0 1 2 3 2
0 0 0 1 3 6 12 16 16 15 18 24 26 23 19 16 12 9 7 7 5 3 3 2 2 2 2 1 0 0 0 0 0 0 0 0 0 0 0 0 0 0 0 0 0 0 1 1 1
0 0 0 0 1 3 6 11 14 16 19 21 23 22 17 12 9 7 5 4 3 1 1 1 1 1 1 1 0 0 0 0 0 0 0 0 0 0 0 0 0 0 0 0 0 0 0 0 0
0 0 0 0 0 0 2 5 10 16 19 19 19 18 12 7 5 4 3 3 2 1 0 0 0 0 0 0 0 0 1 0 0 0 0 0 0 0 0 0 0 0 0 0 0 0 0 0 0
0 0 0 0 0 0 1 4 10 16 17 16 16 13 9 5 3 2 2 1 1 1 0 0 0 0 0 0 0 0 0 0 0 0 0 0 0 0 0 0 0 0 1 1 1 0 0 0 0
0 0 0 0 0 0 1 4 8 12 13 13 12 10 6 3 2 1 0 0 0 1 1 1 1 0 0 0 0 0 0 0 0 0 0 0 0 0 0 0 0 1 2 2 1 0 0 0 0
0 0 0 0 0 0 1 2 3 5 7 8 9 7 5 3 2 1 0 0 0 0 1 1 0 0 0 0 0 0 0 0 0 0 0 0 0 0 0 0 0 1 2 2 1 0 0 0 0
0 0 0 0 0 0 0 0 0 1 3 4 6 5 3 2 1 0 0 0 0 0 0 0 0 0 0 0 0 0 0 0 0 0 0 0 0 0 0 0 0 0 1 1 0 0 0 0 0
0 0 0 0 0 0 0 0 0 0 1 2 5 4 2 0 0 0 0 0 0 0 0 0 0 0 0 0 0 0 0 0 0 0 0 0 0 0 0 0 0 0 0 0 0 0 0 0 0
0 0 0 0 0 0 0 0 0 0 0 2 3 3 1 0 0 0 0 0 0 0 0 0 0 0 0 0 0 0 0 0 0 0 0 0 0 0 0 0 0 0 0 0 0 0 0 0 0
0 0 0 0 0 0 0 0 0 0 0 1 2 1 1 0 0 0 0 0 0 0 0 0 0 0 0 0 0 0 0 0 0 0 0 0 0 0 0 0 0 0 0 0 0 0 0 0 0
0 0 0 0 0 0 0 0 0 0 0 0 0 1 1 0 0 0 0 0 0 0 0 0 0 0 0 0 0 0 0 0 0 0 0 0 0 0 0 0 0 0 0 0 0 0 0 0 0
0 0 0 0 0 0 0 0 0 0 0 0 0 0 0 0 0 0 0 0 0 0 0 0 0 0 0 0 0 0 0 0 0 0 0 0 0 0 0 0 0 0 0 0 0 0 0 0 0
0 0 0 0 0 0 0 0 0 0 0 0 0 0 0 0 0 0 0 0 0 0 0 0 0 0 0 0 0 0 0 0 0 0 0 0 0 0 0 0 0 0 0 0 0 0 0 0 0
0 0 0 0 0 0 0 0 0 0 0 0 0 0 0 0 0 0 0 0 0 0 0 0 0 0 0 0 0 0 0 0 0 0 0 0 0 0 0 0 0 0 0 0 0 0 0 0 0
0 0 0 0 0 0 0 0 0 0 0 0 0 0 0 0 0 0 0 0 0 0 0 0 0 0 0 0 0 0 0 0 0 0 0 0 0 0 0 0 0 0 0 0 0 0 0 0 0
0 0 0 0 0 0 0 0 0 0 0 0 0 0 0 0 0 0 0 0 0 0 0 0 0 0 0 0 0 0 0 0 0 0 0 0 0 0 0 0 0 0 0 0 0 0 0 0 0
0 0 0 0 0 0 0 0 0 0 0 0 0 0 0 0 0 0 0 0 0 0 0 0 0 0 0 0 0 0 0 0 0 0 0 0 0 0 0 0 0 0 0 0 0 0 0 0 0

GEFSSGP_con_prob3kmehi_138.txt.gz
EHI
4 2 1 0 0 0 0 0 0 0 0 0 0 0 1 2 3 6 8 5 1 1 4 6 7 7 10 14 17 19 19 16 12 9 7 4 1 0 0 0 0 0 0 0 0 0 0 0 0
1 1 0 0 0 0 0 0 0 0 0 0 0 1 2 4 5 7 8 5 1 1 4 7 9 8 9 13 17 19 18 14 11 9 7 5 2 0 0 0 0 0 0 0 0 0 0 0 0
0 0 0 0 0 0 0 1 1 1 0 0 1 2 5 6 7 7 8 6 2 1 3 8 11 12 12 14 17 17 15 12 9 7 7 6 2 1 1 0 0 0 0 0 0 0 0 0 0
0 0 0 0 0 0 0 1 1 1 1 1 3 6 10 10 10 9 8 7 4 2 2 6 10 13 13 15 17 16 13 10 8 6 6 5 3 1 1 0 0 0 0 0 0 0 0 0 0
0 0 0 0 0 0 0 0 1 2 3 3 5 10 16 18 16 12 10 7 5 3 1 3 8 9 10 13 16 15 13 9 7 6 6 4 2 1 1 1 0 0 0 0 0 0 0 0 0
0 0 0 0 0 0 0 0 2 4 4 4 6 12 20 25 23 17 11 7 5 4 3 3 6 8 9 12 14 15 12 8 6 6 5 3 1 0 1 1 0 0 0 0 0 0 0 0 0
0 0 0 0 0 0 0 0 1 3 3 3 5 11 20 28 28 21 14 9 7 7 7 6 5 7 9 9 10 11 10 7 5 5 3 2 0 0 0 0 0 0 0 0 0 0 0 0 0
0 0 0 0 0 0 0 0 0 1 2 3 5 11 21 30 33 27 20 15 13 12 11 8 4 5 6 6 6 5 4 3 2 3 3 2 1 0 0 0 0 0 0 0 0 0 0 0 0
0 0 0 0 0 0 0 0 1 2 3 5 9 15 25 33 35 31 25 21 19 17 14 8 4 4 4 3 3 2 1 1 1 2 3 2 1 1 0 0 0 0 0 0 0 0 0 0 0
0 0 0 0 0 0 0 1 2 3 4 8 15 22 29 32 32 29 26 24 23 21 16 9 6 5 5 5 5 5 4 3 2 2 3 3 3 2 2 1 0 0 0 0 0 0 0 0 1
0 0 0 0 0 0 1 2 3 4 5 8 16 26 32 30 27 24 23 21 21 19 14 9 8 8 7 7 9 9 7 5 3 2 3 3 3 4 4 3 2 1 1 1 2 2 1 1 1
0 0 0 0 0 0 1 2 3 4 6 9 16 27 32 28 22 18 17 16 16 15 11 10 11 12 12 10 9 9 9 7 5 3 3 2 2 4 6 5 3 1 2 4 5 4 3 2 1
0 0 0 0 0 0 1 2 3 4 7 12 20 25 27 25 19 14 11 10 11 12 12 12 13 15 14 11 9 9 9 9 8 8 5 2 1 3 5 5 3 2 3 6 6 5 5 4 3
0 0 0 0 0 0 1 2 3 5 8 15 20 22 23 21 18 14 10 7 8 12 14 13 11 11 11 9 8 8 8 8 9 8 5 2 1 2 4 4 3 2 4 5 5 5 6 7 5
0 0 0 0 0 0 0 1 3 6 10 15 18 19 21 19 17 15 11 6 6 9 12 11 8 6 5 5 6 6 5 5 5 4 2 1 1 2 3 3 4 4 4 5 4 4 7 7 5
0 0 0 0 0 0 0 1 5 7 9 14 17 17 18 18 17 14 10 4 3 7 10 8 6 5 4 4 4 5 4 3 2 1 0 0 0 1 1 1 2 3 3 2 2 3 6 7 6
0 0 0 0 0 0 0 2 5 5 7 12 16 16 16 16 15 11 7 4 3 6 8 7 6 6 5 4 5 5 3 1 1 0 0 0 0 0 0 0 0 1 1 0 0 2 4 7 8
0 0 0 0 0 0 0 1 3 3 5 10 14 15 16 14 11 7 5 3 3 4 5 5 5 5 4 3 4 3 1 0 0 0 0 0 0 0 0 0 0 0 0 0 1 2 3 4 6
0 0 0 0 0 0 0 1 2 3 5 9 14 15 14 12 7 4 4 3 3 3 3 3 2 2 1 2 2 1 0 0 0 0 0 0 0 0 0 0 0 0 0 0 1 2 2 2 3
0 0 0 0 0 0 0 0 1 2 4 9 12 13 12 10 6 3 3 3 3 3 1 1 1 0 0 0 1 0 0 0 0 0 0 0 0 0 0 0 0 0 0 0 0 1 1 1 2
0 0 0 0 0 0 0 0 2 3 4 7 9 9 9 8 6 3 3 3 3 2 1 0 0 0 0 0 0 0 0 0 0 0 0 0 0 0 0 0 0 0 0 0 0 0 0 0 1
0 0 0 0 0 0 0 1 3 4 4 6 7 7 8 8 6 3 3 3 1 1 0 0 0 0 0 0 0 0 0 0 0 0 0 0 0 0 0 0 0 0 0 0 0 0 0 0 0
0 0 0 0 0 0 0 0 2 3 4 6 8 8 8 9 6 3 2 2 1 0 0 0 0 0 0 0 0 0 0 0 0 0 0 0 0 0 0 0 0 0 0 0 0 0 0 0 0
0 0 0 0 0 0 0 0 0 1 2 4 8 10 10 8 6 3 2 1 0 0 0 0 0 0 0 0 0 0 0 0 0 0 0 0 0 0 0 0 0 0 0 0 0 0 0 0 0
0 0 0 0 0 0 0 0 0 0 0 2 6 10 11 9 6 4 2 1 0 0 0 0 0 0 0 0 0 0 0 0 0 0 0 0 0 0 0 0 0 0 0 0 0 0 0 0 0
0 0 0 0 0 0 0 0 0 0 0 1 4 9 11 10 7 5 4 3 1 1 1 1 0 0 0 0 0 0 0 0 0 0 0 0 0 0 0 0 0 0 0 0 0 0 0 0 0
0 0 0 0 0 0 0 0 0 0 0 0 3 8 11 10 7 5 5 5 3 3 3 2 1 1 0 0 0 0 0 0 0 0 0 0 0 0 0 0 0 0 0 0 0 0 0 0 0
0 0 0 0 0 0 0 0 0 0 1 1 4 8 11 10 7 5 5 5 4 3 3 2 1 0 0 0 0 0 0 0 0 0 0 0 0 0 0 0 0 0 0 0 0 0 0 0 0
0 0 0 0 0 0 0 0 0 1 2 3 5 7 9 9 7 5 6 6 4 3 3 2 1 1 1 0 0 0 0 0 0 0 0 0 0 0 0 0 0 0 0 0 0 0 0 0 0
0 0 0 0 0 0 0 0 0 1 2 4 4 6 8 8 6 5 7 7 5 4 4 4 3 2 2 1 0 0 0 0 0 0 0 0 0 0 0 0 0 0 0 0 0 0 0 0 0